Weather History for Jesup, GA

Change the Weather History Date:

Monday, January 13, 2014

  Actual Average (KLHW) Record (KLHW)
Temperature  
Mean Temperature 49 °F -  
Max Temperature 66 °F 59 °F 80 °F (1972)
Min Temperature 32 °F 38 °F 15 °F (1981)
Degree Days  
Heating Degree Days 16    
Moisture  
Dew Point 46 °F    
Average Humidity 88    
Maximum Humidity 100    
Minimum Humidity 55    
Precipitation  
Precipitation 0.00 in - - ()
Sea Level Pressure  
Sea Level Pressure 30.11 in    
Wind  
Wind Speed 1 mph (South)    
Max Wind Speed 8 mph    
Max Gust Speed -    
Visibility 10 miles    
Events Rain    
Averages and records for this station are not official NWS values.
T = Trace of Precipitation, MM = Missing Value Source: NWS Daily Summary

Daily Weather History Graph

Daily Weather History Graph

Search for Another Location

Airport:

Trip Planner

Search our weather history database for the weather conditions in past years. The results will help you decide how hot, cold, wet, or windy it might be!

Date:

Astronomy

Jan. 13, 2014 Rise Set
Actual Time 7:27 AM EST 5:45 PM EST
Civil Twilight 7:01 AM EST 6:11 PM EST
Nautical Twilight 6:31 AM EST 6:41 PM EST
Astronomical Twilight 6:02 AM EST 7:10 PM EST
Moon 3:58 PM EST (1/13) 5:16 AM EST (1/13)
Length of Visible Light 11h 10m
Length of Day
10h 17m
Waxing Gibbous, 95% of the Moon is Illuminated
Jan 13
Waxing Gibbous
Jan 15
Full
Jan 24
Last Quarter
Jan 30
New
Feb 6
First Quarter

Hourly Weather History & Observations

Time (EST) Temp. Dew Point Humidity Pressure Visibility Wind Dir Wind Speed Gust Speed Precip Events Conditions
12:15 AM 35.6 °F 35.6 °F 100% 30.21 in 10.0 mi Calm Calm - N/A   Clear
12:35 AM 35.6 °F 35.6 °F 100% 30.21 in 10.0 mi Calm Calm - N/A   Clear
12:55 AM 35.6 °F 35.6 °F 100% 30.21 in 10.0 mi Calm Calm - N/A   Clear
1:15 AM 35.6 °F 35.6 °F 100% 30.21 in 10.0 mi Calm Calm - N/A   Clear
1:35 AM 33.8 °F 33.8 °F 100% 30.21 in 10.0 mi Calm Calm - N/A   Clear
1:55 AM 33.8 °F 33.8 °F 100% 30.20 in 10.0 mi Calm Calm - N/A   Clear
2:15 AM 33.8 °F 33.8 °F 100% 30.20 in 10.0 mi Calm Calm - N/A   Clear
2:35 AM 33.8 °F 33.8 °F 100% 30.20 in 10.0 mi Calm Calm - N/A   Clear
2:55 AM 33.8 °F 33.8 °F 100% 30.21 in 10.0 mi Calm Calm - N/A   Clear
3:15 AM 33.8 °F 33.8 °F 100% 30.21 in 10.0 mi Calm Calm - N/A   Clear
3:35 AM 33.8 °F 33.8 °F 100% 30.21 in 10.0 mi Calm Calm - N/A   Clear
3:55 AM 33.8 °F 33.8 °F 100% 30.21 in 10.0 mi Calm Calm - N/A   Clear
4:15 AM 33.8 °F 33.8 °F 100% 30.21 in 10.0 mi Calm Calm - N/A   Clear
4:35 AM 33.8 °F 33.8 °F 100% 30.21 in 10.0 mi Calm Calm - N/A   Clear
4:55 AM 33.8 °F 33.8 °F 100% 30.20 in 10.0 mi Calm Calm - N/A   Clear
5:15 AM 32.0 °F 32.0 °F 100% 30.20 in 10.0 mi Calm Calm - N/A   Clear
5:35 AM 33.8 °F 33.8 °F 100% 30.20 in 10.0 mi Calm Calm - N/A   Clear
5:55 AM 33.8 °F 33.8 °F 100% 30.20 in 10.0 mi Calm Calm - N/A   Clear
6:35 AM 33.8 °F 33.8 °F 100% 30.19 in 10.0 mi Calm Calm - N/A   Clear
6:55 AM 35.6 °F 35.6 °F 100% 30.19 in 10.0 mi Calm Calm - N/A   Clear
7:15 AM 35.6 °F 35.6 °F 100% 30.19 in 10.0 mi Calm Calm - N/A   Clear
7:35 AM 35.6 °F 35.6 °F 100% 30.19 in 10.0 mi Calm Calm - N/A   Clear
7:55 AM 35.6 °F 35.6 °F 100% 30.19 in 10.0 mi Calm Calm - N/A   Clear
8:15 AM 37.4 °F 37.4 °F 100% 30.19 in 10.0 mi Calm Calm - N/A   Clear
8:35 AM 39.2 °F 39.2 °F 100% 30.19 in 10.0 mi Calm Calm - N/A   Clear
8:55 AM 41.0 °F 41.0 °F 100% 30.19 in 10.0 mi Calm Calm - N/A   Clear
9:15 AM 42.8 °F 42.8 °F 100% 30.19 in 10.0 mi Calm Calm - N/A   Clear
9:35 AM 44.6 °F 44.6 °F 100% 30.19 in 10.0 mi Calm Calm - N/A   Clear
9:55 AM 46.4 °F 46.4 °F 100% 30.18 in 10.0 mi Calm Calm - N/A   Clear
10:15 AM 50.0 °F 46.4 °F 87% 30.18 in 10.0 mi Calm Calm - N/A   Clear
10:35 AM 53.6 °F 46.4 °F 77% 30.17 in 10.0 mi SSE 4.6 mph - N/A   Clear
10:55 AM 55.4 °F 44.6 °F 67% 30.17 in 10.0 mi SSE 4.6 mph - N/A   Clear
11:15 AM 59.0 °F 44.6 °F 59% 30.16 in 10.0 mi SE 3.5 mph - N/A   Clear
11:35 AM 60.8 °F 44.6 °F 55% 30.15 in 10.0 mi SE 4.6 mph - N/A   Clear
11:55 AM 62.6 °F 46.4 °F 55% 30.14 in 10.0 mi Calm Calm - N/A   Clear
12:15 PM 62.6 °F 48.2 °F 59% 30.12 in 10.0 mi SSE 4.6 mph - N/A   Clear
12:35 PM 60.8 °F 50.0 °F 68% 30.11 in 10.0 mi South 5.8 mph - N/A   Clear
12:55 PM 62.6 °F 50.0 °F 63% 30.11 in 10.0 mi SSW 8.1 mph - N/A   Clear
1:15 PM 64.4 °F 51.8 °F 64% 30.09 in 10.0 mi SSW 4.6 mph - N/A   Clear
1:35 PM 64.4 °F 51.8 °F 64% 30.08 in 10.0 mi South 5.8 mph - N/A   Clear
1:55 PM 64.4 °F 51.8 °F 64% 30.06 in 10.0 mi SSW 3.5 mph - N/A   Clear
2:15 PM 64.4 °F 51.8 °F 64% 30.05 in 10.0 mi South 3.5 mph - N/A   Clear
2:35 PM 64.4 °F 51.8 °F 64% 30.05 in 10.0 mi Calm Calm - N/A   Clear
2:55 PM 64.4 °F 53.6 °F 68% 30.04 in 10.0 mi Calm Calm - N/A   Scattered Clouds
3:15 PM 66.2 °F 53.6 °F 64% 30.03 in 10.0 mi SSE 3.5 mph - N/A   Mostly Cloudy
3:35 PM 66.2 °F 53.6 °F 64% 30.03 in 10.0 mi South 3.5 mph - N/A   Overcast
3:55 PM 66.2 °F 53.6 °F 64% 30.02 in 10.0 mi SSW 4.6 mph - N/A   Scattered Clouds
4:15 PM 64.4 °F 53.6 °F 68% 30.02 in 10.0 mi Calm Calm - N/A   Clear
4:35 PM 66.2 °F 55.4 °F 68% 30.03 in 10.0 mi SE 6.9 mph - N/A   Scattered Clouds
4:55 PM 64.4 °F 55.4 °F 73% 30.03 in 10.0 mi SE 4.6 mph - N/A   Overcast
5:15 PM 62.6 °F 53.6 °F 72% 30.01 in 10.0 mi SE 3.5 mph - N/A   Scattered Clouds
5:35 PM 60.8 °F 53.6 °F 77% 30.01 in 10.0 mi SE 3.5 mph - N/A   Scattered Clouds
5:55 PM 59.0 °F 53.6 °F 82% 30.01 in 10.0 mi Calm Calm - N/A   Scattered Clouds
6:15 PM 59.0 °F 53.6 °F 82% 30.01 in 10.0 mi Calm Calm - N/A   Mostly Cloudy
6:35 PM 55.4 °F 53.6 °F 94% 30.01 in 10.0 mi Calm Calm - N/A   Scattered Clouds
6:55 PM 55.4 °F 53.6 °F 94% 30.00 in 10.0 mi Calm Calm - N/A   Scattered Clouds
7:15 PM 55.4 °F 53.6 °F 94% 30.00 in 10.0 mi Calm Calm - N/A   Clear
7:35 PM 55.4 °F 53.6 °F 94% 30.01 in 10.0 mi Calm Calm - N/A   Scattered Clouds
7:55 PM 55.4 °F 53.6 °F 94% 30.03 in 10.0 mi Calm Calm - N/A   Overcast
8:15 PM 55.4 °F 53.6 °F 94% 30.03 in 10.0 mi Calm Calm - N/A   Overcast
8:35 PM 55.4 °F 53.6 °F 94% 30.02 in 10.0 mi Calm Calm - N/A   Mostly Cloudy
8:55 PM 55.4 °F 53.6 °F 94% 30.03 in 10.0 mi Calm Calm - N/A   Mostly Cloudy
9:15 PM 55.4 °F 53.6 °F 94% 30.04 in 10.0 mi Calm Calm - N/A   Overcast
9:35 PM 53.6 °F 53.6 °F 100% 30.02 in 10.0 mi Calm Calm - N/A   Light Drizzle
9:55 PM 53.6 °F 53.6 °F 100% 29.97 in 10.0 mi ENE 4.6 mph - N/A   Overcast
10:15 PM 53.6 °F 53.6 °F 100% 29.96 in 10.0 mi Calm Calm - N/A   Mostly Cloudy
10:35 PM 53.6 °F 53.6 °F 100% 29.99 in 10.0 mi WSW 3.5 mph - N/A   Mostly Cloudy
10:55 PM 55.4 °F 53.6 °F 94% 29.99 in 10.0 mi Calm Calm - N/A   Overcast
11:15 PM 55.4 °F 55.4 °F 100% 30.01 in 10.0 mi West 4.6 mph - N/A Rain Rain
11:35 PM 55.4 °F 55.4 °F 100% 29.99 in 10.0 mi Calm Calm - N/A Rain Rain
11:55 PM 55.4 °F 55.4 °F 100% 29.98 in 7.0 mi Calm Calm - N/A Rain Rain